Regional Weather Roundup
Issued by NWS

Home | Current Version | Previous Version | Text Only | Print | Product List | Glossary On
Versions: 1 2 3 4 5 6 7 8 9 10 11 12 13 14 15 16 17 18 19 20 21 22 23 24 25 26 27 28 29 30 31 32 33 34 35 36 37 38 39 40 41 42 43 44 45 46 47 48 49 50
000
ASUS46 KSEW 021310
RWRWA

WASHINGTON REGIONAL WEATHER ROUNDUP
NATIONAL WEATHER SERVICE SEATTLE WA
600 AM PDT WED SEP 02 2015

NOTE:"FAIR" INDICATES FEW OR NO CLOUDS BELOW 12,000 FEET WITH NO
SIGNIFICANT WEATHER AND/OR OBSTRUCTIONS TO VISIBILITY.

WAZ505-507>509-021400-
SEATTLE, TACOMA, EVERETT, AND VICINITY

CITY           SKY/WX    TMP DP  RH WIND       PRES   REMARKS
EVERETT        LGT RAIN  53  50  89 SE3       29.85R
BOEING FIELD   CLOUDY    60  52  74 VRB3      29.84R
RENTON         CLOUDY    58  53  84 S5        29.84R
SEATAC AIRPORT MOCLDY    56  53  90 SW9       29.85R
JBLM-MCCHORD   CLEAR     53  53  99 S7        29.85R
PUYALLUP       CLOUDY    55  55 100 CALM      29.86R
BREMERTON      CLEAR     48  48 100 CALM      29.85F
JBLM-FT LEWIS  CLEAR     54  53  99 S6        29.85R
TACOMA NARROWS CLEAR     55  52  89 S9        29.85R
$$

WAZ001-503-506-510-514-515-021400-
NORTH INTERIOR

CITY           SKY/WX    TMP DP  RH WIND       PRES   REMARKS
BELLINGHAM       N/A     52  49  89 CALM      29.81R
FRIDAY HARBOR  PTCLDY    46  45  96 CALM      29.82S
EASTSOUND      CLEAR     52  46  82 S5        29.79S
PORT ANGELES   CLEAR     50  48  93 SW5       29.82R
PORT TOWNSEND  NOT AVBL
NAS WHIDBEY    MOCLDY    52  51  97 E7        29.86R
ARLINGTON      CLOUDY    54  48  82 CALM      29.84R
BURLINGTON     CLOUDY    52  52 100 CALM      29.83R
$$

WAZ020-022-039-040-504-511-512-021400-
SOUTHWEST INTERIOR

CITY           SKY/WX    TMP DP  RH WIND       PRES   REMARKS
SHELTON        MOCLDY    53  52  96 SW7       29.83R
OLYMPIA        CLEAR     54  51  90 SW8       29.86R
CHEHALIS       MOCLDY    54  54 100 CALM      29.87R
KELSO          NOT AVBL
VANCOUVER      RAIN      58  54  86 CALM      29.89R FOG
SCAPPOOSE, OR  LGT RAIN  57  55  93 SE3       29.88R
PORTLAND, OR   LGT RAIN  59  56  89 CALM      29.89R
$$

WAZ021-516-517-021400-
WASHINGTON COAST

CITY           SKY/WX    TMP DP  RH WIND       PRES   REMARKS
FORKS          HVY RAIN  50  50 100 VRB3      29.82S
HOQUIAM        PTCLDY    56  53  90 SW6       29.86R
ASTORIA, OR    PTCLDY    55  53  93 SE3       29.87R
$$

WAZ019-023-024-040-518-519-021400-
CASCADE MOUNTAINS AND COLUMBIA GORGE

CITY           SKY/WX    TMP DP  RH WIND       PRES   REMARKS
TROUTDALE, OR  LGT RAIN  59  56  89 SW3       29.89R
THE DALLES, OR MOCLDY    61  48  62 NW9       29.84R
$$

WAZ026-027-041>044-520-521-021400-
EAST SLOPES

CITY           SKY/WX    TMP DP  RH WIND       PRES   REMARKS
OMAK           MOCLDY    62  39  42 S12       29.68R
WENATCHEE      PTCLDY    58  41  53 N5        29.74R
ELLENSBURG     CLOUDY    55  44  66 NW12      29.79R
YAKIMA         MOCLDY    59  45  59 NE10      29.79R
$$

WAZ028-034-035-021400-
COLUMBIA BASIN

CITY           SKY/WX    TMP DP  RH WIND       PRES   REMARKS
EPHRATA        CLOUDY    63  41  44 W7        29.73R
MOSES LAKE     CLOUDY    61  45  55 SW10      29.74R
PASCO          CLOUDY    67  46  47 SW12      29.77R
HERMISTON, OR  CLOUDY    63  50  62 SW10      29.81R
$$

WAZ036>038-021400-
NORTHEAST WASHINGTON

CITY           SKY/WX    TMP DP  RH WIND       PRES   REMARKS
SPOKANE GEIGER CLOUDY    58  47  66 S12       29.77R
SPOKANE FELTS  CLOUDY    61  47  59 S9        29.76S
FAIRCHILD AFB  CLOUDY    57  47  68 S9        29.76R
COEURDALENE,ID CLOUDY    61  45  55 S9        29.77R
DEER PARK      CLOUDY    59  46  62 S12       29.75R
$$

WAZ029>033-021400-
SOUTHEAST WASHINGTON

CITY           SKY/WX    TMP DP  RH WIND       PRES   REMARKS
PULLMAN        CLOUDY    61  46  57 W8        29.84R
LEWISTON, ID   CLOUDY    63  41  44 S3        29.78R
WALLA WALLA    CLOUDY    66  49  54 SW12      29.82R
PENDLETON, OR  CLOUDY    59  49  69 W13       29.83R
$$


USA.gov is the U.S. government's official web portal to all federal, state and local government web resources and services.